Theta_e
309 310 312 312 312 312 312 313 314 314 314 315 314 314 311 310 309 299 298 302 297 290 292 299 301 294 295 295 292 295 294 296 293 290 289 287 285 288 286 288 286 284 279 279 280 278 277 297 295 288 291 293 295 294
308 309 310 311 311 311 311 312 313 313 314 314 314 314 312 310 308 305 297 303 302 294 292 298 300 301 299 298 295 293 293 294 295 289 289 287 285 286 284 280 291 282 287 282 287 284 293 298 296 297 295 294 295 294
307 308 309 310 310 311 311 311 312 313 313 313 313 314 313 310 308 303 295 298 298 293 294 295 296 300 301 300 300 291 297 299 298 298 290 288 285 288 281 284 287 289 293 287 288 293 294 296 297 297 297 296 298 297
306 306 307 309 310 310 310 311 311 312 313 313 313 313 312 310 308 305 296 299 298 294 289 295 305 300 303 302 301 302 301 300 298 295 289 287 286 291 286 288 287 290 293 291 289 292 294 295 297 296 298 298 297 296
305 305 306 307 309 310 310 310 311 312 312 313 313 313 312 310 307 303 299 299 302 295 290 291 297 300 303 302 302 300 298 296 293 291 289 288 291 291 290 289 286 293 291 286 285 293 291 293 296 300 296 295 295 294
304 305 306 306 307 308 309 310 310 311 312 314 315 314 312 309 306 298 297 301 298 299 291 287 296 298 299 301 300 299 298 296 295 292 291 292 294 291 286 284 292 296 296 295 293 296 295 297 298 299 297 294 295 293
303 304 306 306 307 307 309 310 310 311 312 313 313 312 310 307 299 297 297 300 302 297 292 288 290 299 301 300 298 297 298 297 295 292 291 292 292 293 287 284 292 297 298 297 298 296 295 296 294 298 297 296 296 294
301 303 305 305 305 306 307 309 310 311 311 312 312 310 307 305 302 298 301 304 299 293 293 287 289 293 300 294 292 296 293 294 294 293 293 291 292 292 286 291 296 299 299 299 298 298 298 296 297 296 296 295 293 291
301 302 304 305 306 306 307 308 310 310 310 310 306 304 302 299 296 299 308 305 300 298 291 290 287 289 297 294 294 294 294 290 295 292 291 293 290 287 291 293 297 298 297 296 298 297 296 295 296 296 296 294 291 290
300 301 303 303 305 307 308 308 309 310 307 306 303 299 294 297 305 306 300 296 296 293 296 289 292 290 294 293 291 291 293 290 287 291 294 290 288 295 296 297 298 299 299 298 293 291 292 294 295 294 295 294 293 291
299 300 301 302 304 306 306 307 309 307 306 300 296 296 302 308 302 299 294 293 294 289 291 291 291 289 295 291 290 293 289 288 284 287 289 284 284 294 298 299 299 299 297 296 293 292 296 295 295 295 294 294 293 292
299 299 299 301 304 306 306 306 306 304 300 300 300 302 301 298 295 292 291 295 292 289 293 291 292 292 294 296 291 290 287 289 284 291 289 282 290 296 298 299 298 297 297 294 294 294 297 298 297 296 294 293 292 292
299 299 299 300 303 305 306 307 306 305 304 300 296 293 292 290 285 286 286 290 289 293 295 296 294 294 295 295 291 290 287 286 292 286 283 288 294 297 297 298 298 296 295 295 296 296 298 298 298 295 293 293 293 294
298 299 299 300 302 304 305 307 306 303 298 292 288 283 287 284 287 288 289 291 296 296 296 297 296 294 294 292 292 288 290 289 284 278 284 290 295 297 298 300 296 294 295 295 296 296 295 298 296 295 294 293 293 294
298 299 299 300 302 303 305 306 304 300 295 289 289 285 286 290 290 292 294 294 296 298 297 295 296 295 292 293 292 290 286 285 283 282 288 294 296 297 298 297 296 296 295 295 295 296 295 297 295 294 294 293 295 296
297 298 296 301 302 304 305 303 299 297 294 290 287 288 292 287 288 291 293 293 297 298 298 298 293 291 291 290 289 288 286 282 286 291 295 296 296 297 296 298 299 298 296 294 294 295 298 297 294 293 294 293 295 296
297 294 301 301 303 304 304 296 294 292 291 286 286 291 291 292 290 291 294 295 300 297 292 294 291 290 292 288 287 289 287 290 291 294 297 297 296 296 297 298 299 299 296 294 294 295 297 297 295 293 291 293 296 295
293 294 300 302 301 300 296 295 292 288 284 288 287 289 291 293 293 294 295 297 297 297 296 294 297 291 286 286 287 291 290 292 293 293 296 298 298 299 299 298 300 298 296 296 295 296 297 295 293 292 292 294 295 294
293 295 301 302 299 294 290 291 292 285 286 290 289 291 294 295 297 299 298 299 299 301 297 296 292 288 288 292 291 290 291 290 290 292 295 299 298 298 300 300 298 296 296 293 293 296 295 295 294 292 293 295 294 294
298 299 301 301 301 293 290 289 294 290 289 290 291 291 291 292 295 296 296 296 297 297 294 292 292 292 293 294 292 292 292 292 291 289 290 291 292 296 295 294 292 293 292 293 297 295 294 294 294 293 295 295 294 293
298 299 302 300 297 294 292 290 290 292 293 289 292 293 291 293 293 293 293 297 295 294 292 294 295 298 299 297 295 294 293 292 290 291 290 289 291 291 291 292 292 291 289 290 296 295 295 293 295 295 295 295 295 295
297 301 296 298 294 293 292 295 290 290 288 292 290 291 291 290 291 293 296 293 292 293 295 295 296 296 295 294 295 296 295 295 293 291 292 291 290 290 290 291 290 291 291 294 298 296 296 296 296 295 296 295 294 295
300 299 294 292 289 288 288 297 290 291 286 289 291 290 289 288 291 297 291 291 292 295 296 295 295 295 294 295 295 295 295 293 291 291 291 291 291 291 291 291 292 294 296 297 298 298 297 294 295 296 297 296 296 296
300 293 287 287 288 286 292 289 291 290 291 289 289 288 287 289 293 290 286 288 291 294 293 294 294 292 292 292 292 292 293 292 291 291 292 291 290 290 292 293 296 297 297 299 300 298 298 297 294 296 297 296 296 296
286 287 288 283 289 286 285 286 286 286 286 288 287 287 287 289 285 286 286 288 290 291 291 292 291 291 290 291 291 293 293 292 291 290 297 296 295 294 295 296 298 298 300 301 299 299 297 297 297 297 297 297 296 297
280 287 282 286 286 285 285 284 284 284 286 286 286 288 288 285 284 284 287 292 293 293 293 292 292 290 291 291 292 291 292 295 295 295 296 297 297 296 295 295 297 300 306 305 301 299 298 298 298 298 297 296 291 298
281 284 287 291 288 288 286 286 287 286 285 284 285 285 285 282 284 289 292 294 293 294 294 294 293 295 294 293 294 296 297 298 298 297 298 298 299 300 299 297 297 301 306 306 306 302 300 299 299 299 298 299 299 299
288 288 284 286 286 288 286 286 286 285 285 288 288 285 284 284 285 290 291 293 294 295 296 295 296 296 296 296 297 298 299 300 301 300 300 301 302 304 306 305 306 296 305 306 306 306 303 301 300 300 300 299 299 301
286 288 287 285 286 285 287 287 287 288 291 288 284 284 286 290 293 293 293 293 293 293 292 292 294 296 295 298 300 301 301 299 296 295 294 295 298 301 306 306 306 307 307 305 291 298 303 302 302 301 301 300 301 301
287 290 286 287 284 282 287 289 288 290 291 290 291 291 290 291 293 293 291 290 288 288 288 289 290 293 293 293 296 299 300 300 299 299 298 298 301 305 306 306 307 306 306 306 304 299 288 295 293 299 299 299 299 298
288 283 281 281 280 289 289 289 290 290 289 289 289 285 287 289 292 291 289 292 291 292 291 288 288 290 293 293 295 296 295 299 300 302 304 305 306 304 305 306 307 306 306 305 299 299 298 299 299 298 298 298 297 297
285 283 284 283 285 289 289 288 288 287 287 287 286 287 287 286 285 290 294 294 292 291 290 291 290 291 293 294 295 296 291 297 302 303 302 305 306 306 305 306 306 306 304 305 306 303 301 301 299 299 298 299 298 298
286 286 287 286 286 285 287 287 286 286 287 286 287 287 287 286 284 289 294 294 293 292 293 294 296 296 298 296 298 298 294 300 292 287 291 293 294 298 305 307 308 309 307 306 306 306 304 302 302 301 299 299 298 298
Wind_Speed
11 14 16 16 15 14 14 13 12 11 10 8 7 6 6 6 9 4 4 2 4 1 7 3 3 2 4 3 4 4 4 4 4 3 2 2 1 2 3 2 3 3 2 2 1 3 6 4 5 3 9 7 8 8
12 11 13 15 16 16 14 14 13 14 12 10 9 8 6 4 6 4 2 3 2 4 7 3 5 5 5 5 5 2 5 2 4 4 1 1 2 2 4 2 4 2 6 5 8 7 4 5 7 8 6 7 7 6
13 12 11 13 14 16 15 15 15 15 13 12 11 9 7 4 2 3 2 3 3 2 5 3 6 6 4 4 5 5 2 2 2 4 4 2 2 4 2 5 3 4 3 2 4 2 4 7 7 6 5 6 8 8
13 12 11 11 13 13 14 15 16 17 15 14 12 10 9 6 2 2 0 1 2 1 1 6 3 3 5 6 4 5 5 4 4 4 3 2 2 4 4 5 5 6 3 3 4 6 6 8 9 5 6 7 7 6
13 12 12 11 11 12 13 14 14 16 16 14 13 12 11 7 3 1 2 3 0 4 3 5 8 7 6 7 7 5 5 4 2 2 2 4 3 2 2 2 3 4 6 5 7 9 7 9 8 4 5 5 5 5
13 12 13 12 11 12 12 13 13 15 15 15 15 14 12 9 4 1 3 2 3 3 3 4 5 1 3 6 7 6 5 3 3 4 4 4 4 4 2 3 5 4 6 8 6 7 8 10 8 3 4 1 4 7
13 12 12 12 11 10 11 11 11 15 16 16 16 15 14 11 3 3 4 3 4 2 3 4 5 3 5 4 1 1 1 2 4 2 2 3 3 4 2 5 6 5 7 7 8 3 6 4 4 5 3 4 7 7
13 13 12 11 9 12 11 10 10 12 15 17 16 16 13 9 1 2 3 7 2 3 3 1 5 1 6 3 2 3 3 2 2 4 2 3 2 3 4 7 6 7 6 6 8 4 7 6 2 1 3 3 7 8
14 13 12 10 12 14 12 11 10 10 12 15 24 21 5 1 3 2 3 8 2 3 2 2 3 4 2 3 3 0 3 2 2 5 4 5 3 6 8 8 7 8 7 6 5 5 6 0 2 5 6 6 5 7
11 10 11 10 10 10 8 10 7 9 26 26 5 3 3 4 3 2 3 2 1 2 2 4 2 3 4 3 2 2 2 4 2 7 2 4 6 7 7 8 7 8 7 5 3 6 3 1 5 6 6 4 5 7
11 10 10 11 11 10 8 9 11 25 17 1 4 3 3 6 2 2 3 3 3 3 5 5 7 4 2 4 5 3 3 1 1 6 5 3 4 5 4 6 6 6 3 3 2 3 6 6 6 5 5 5 6 7
12 12 12 11 11 10 9 8 27 12 3 5 8 6 3 3 2 4 4 3 5 7 5 5 6 6 4 3 4 1 3 2 5 1 2 4 5 2 5 4 5 4 5 2 3 1 8 7 5 1 1 5 6 7
14 13 13 12 10 8 9 11 25 15 17 2 4 4 3 2 4 9 10 6 5 5 5 5 4 5 1 2 2 3 3 5 1 2 5 5 2 3 6 4 4 4 4 3 5 5 6 5 4 3 1 3 6 6
13 13 13 12 10 8 8 15 21 10 3 2 6 7 8 6 7 8 8 6 6 4 6 6 4 5 3 3 3 4 5 3 1 1 6 3 5 5 4 2 4 2 5 6 7 7 4 6 6 3 1 4 4 6
11 12 11 10 10 9 6 20 16 3 2 2 2 5 7 2 4 4 5 2 3 1 6 4 3 4 1 4 3 3 3 5 7 6 4 3 5 4 2 2 1 3 5 6 6 6 3 6 5 2 2 4 5 5
10 9 6 10 10 9 8 13 4 2 1 2 3 4 3 3 2 1 3 5 1 3 4 5 4 3 2 4 4 7 5 6 4 3 3 4 5 4 4 4 5 5 5 5 7 4 4 6 6 3 3 4 5 5
11 3 12 15 11 10 11 4 3 3 3 3 4 3 2 2 3 4 4 3 1 3 4 4 6 7 2 3 4 4 5 4 5 3 4 6 7 7 6 5 6 6 6 8 6 1 5 5 5 2 3 5 6 6
4 6 9 17 10 9 2 2 3 3 3 4 4 3 3 1 2 2 2 2 3 3 3 3 2 3 4 5 4 1 1 0 0 4 5 5 6 7 6 7 6 7 7 7 7 4 6 5 3 0 2 4 4 5
6 5 6 18 7 5 3 2 2 4 4 3 3 3 3 2 2 3 4 4 4 3 5 3 2 4 5 2 3 2 2 2 3 2 2 5 3 5 6 3 5 5 6 4 4 4 4 5 3 2 2 3 3 4
9 9 8 20 7 2 3 1 1 2 2 3 1 2 3 2 4 3 2 2 4 4 3 5 5 4 2 3 2 4 3 3 5 3 2 1 2 3 1 3 4 5 5 2 4 5 4 3 2 2 1 2 3 4
5 5 20 13 3 2 1 3 3 3 3 3 3 3 2 2 2 4 3 3 2 3 4 5 5 3 5 2 3 3 3 4 3 5 5 2 3 3 3 5 5 4 3 2 5 5 5 4 3 2 1 3 3 3
0 10 3 4 2 5 3 3 3 3 3 4 3 3 2 3 3 3 3 3 3 4 4 3 4 5 3 2 1 2 3 3 3 2 2 2 1 2 3 4 2 4 4 4 4 5 5 4 4 2 1 1 2 2
7 3 4 3 2 1 3 1 2 3 4 7 5 4 3 3 5 5 2 4 4 4 5 5 5 5 5 4 2 1 3 5 3 3 3 4 4 4 4 5 2 3 2 3 4 7 6 6 4 3 3 1 3 3
4 3 4 4 4 4 4 4 4 3 3 5 5 4 6 4 7 4 5 4 3 3 5 6 5 3 1 1 1 3 5 4 4 3 3 2 2 3 2 2 2 2 3 4 5 6 6 4 5 3 3 3 3 5
4 4 4 3 4 4 4 4 4 4 4 5 7 4 5 4 4 4 4 2 1 2 1 2 3 4 4 4 3 5 6 5 4 3 2 4 4 3 1 1 2 2 3 5 7 7 6 4 4 5 5 3 3 5
2 5 7 6 4 4 5 3 5 5 4 4 5 3 2 3 3 2 3 2 2 3 2 1 3 3 3 3 1 1 5 5 6 5 3 5 5 5 4 5 1 3 7 6 9 10 9 7 7 9 5 3 2 3
3 4 4 4 4 3 3 2 3 2 2 3 3 2 4 3 2 3 1 4 2 2 1 1 1 5 4 1 1 3 2 5 6 4 3 4 3 3 2 1 1 5 9 8 8 12 12 10 8 8 5 2 1 4
1 2 4 3 2 2 4 4 3 2 2 3 3 3 5 2 3 0 2 3 2 3 2 1 2 2 2 2 3 3 6 6 3 5 4 4 2 3 3 3 2 6 3 2 3 6 11 13 10 11 10 7 4 4
2 2 4 6 4 3 3 1 3 3 4 3 3 4 3 2 1 2 3 3 4 5 6 6 6 7 5 4 5 2 4 4 2 4 3 0 2 3 3 3 1 2 2 3 1 5 9 11 11 11 12 8 7 5
3 3 4 5 4 4 3 2 3 2 4 3 3 3 3 2 2 3 4 5 5 4 3 2 4 4 4 5 4 7 3 2 4 5 4 3 3 3 3 2 3 1 1 3 1 3 6 4 5 4 6 4 3 3
2 4 4 4 3 3 2 1 3 4 4 4 4 4 2 2 3 2 2 2 2 3 5 4 4 3 3 4 3 4 5 4 3 6 9 8 7 4 3 3 3 3 2 2 6 6 6 5 5 6 7 7 8 8
2 1 3 3 2 2 4 3 3 3 3 3 2 2 2 1 2 2 2 2 2 3 4 4 4 4 2 3 5 4 6 7 4 3 8 7 6 5 4 2 1 2 1 2 5 3 10 10 7 6 6 8 8 9
2 3 4 3 2 2 1 3 2 2 2 2 1 0 1 0 1 2 2 4 5 4 5 5 5 4 6 7 7 7 7 4 3 3 7 8 9 8 4 3 3 4 5 2 2 1 5 8 8 10 9 8 9 11
Wind_Direction
282 261 245 235 227 225 227 227 224 227 237 240 246 264 302 348 7 39 269 280 108 176 279 294 333 53 7 58 134 258 45 349 37 71 115 275 99 265 64 271 159 189 132 241 42 279 298 6 10 121 229 274 264 276
284 279 253 244 235 227 225 224 221 218 223 221 226 236 261 319 4 22 316 313 95 137 237 268 252 226 200 189 147 7 170 203 187 93 62 110 337 10 157 263 340 347 174 202 175 221 232 245 224 240 230 239 280 279
279 284 277 251 243 236 228 224 219 214 212 207 211 218 232 260 355 60 252 293 33 37 310 4 260 249 135 162 155 118 312 193 50 169 161 179 246 124 177 243 203 284 150 163 45 265 263 288 269 256 293 280 274 271
263 275 278 274 249 239 235 229 220 213 206 199 199 204 212 224 240 47 299 266 119 135 127 282 312 87 161 134 113 136 145 47 109 76 105 148 188 165 208 225 182 204 117 196 253 277 307 286 261 282 283 288 306 320
263 264 274 274 277 254 239 231 221 212 200 190 189 194 200 201 205 274 230 250 200 131 217 277 308 245 160 148 149 122 109 99 90 60 105 226 233 89 278 67 255 187 190 159 229 231 199 253 260 260 269 289 317 317
264 255 261 270 270 266 240 229 217 211 196 188 185 187 183 178 143 61 15 338 348 152 90 312 284 152 136 137 141 139 149 137 120 147 219 256 243 111 170 233 254 217 199 181 222 225 216 254 280 259 295 321 304 285
263 264 258 257 269 273 263 234 217 210 197 187 180 177 167 161 131 166 193 218 12 38 89 321 311 262 141 112 133 132 110 176 136 212 227 210 265 110 185 227 241 224 210 207 228 255 311 298 236 295 188 246 271 271
260 259 255 249 260 267 268 250 224 212 204 186 171 149 135 141 261 308 265 237 141 83 80 225 270 0 153 167 222 174 178 113 261 207 311 201 348 156 250 238 205 218 233 269 271 257 224 231 263 2 225 282 312 310
250 258 248 261 252 247 252 249 219 207 201 153 125 118 98 146 152 224 82 102 114 129 190 197 205 238 142 193 199 356 133 154 236 192 230 117 223 220 226 203 205 216 209 235 272 291 303 302 333 307 283 298 299 306
234 257 247 260 273 240 244 245 200 189 135 130 102 133 157 201 208 147 42 72 73 268 211 224 235 254 126 162 240 134 165 207 189 238 105 174 237 237 222 216 188 205 220 242 351 325 331 262 262 276 291 318 296 298
227 241 256 264 273 241 224 256 179 140 137 116 118 95 83 148 102 72 147 191 176 237 208 223 191 192 265 136 209 182 191 188 45 267 137 282 296 249 177 155 174 184 200 9 226 205 185 199 229 261 331 336 307 305
226 238 244 256 268 234 207 253 151 151 180 145 111 108 123 116 121 152 177 195 211 224 203 178 210 179 259 122 107 275 162 75 232 269 78 283 255 227 154 136 143 148 78 29 336 59 195 214 231 132 265 314 307 292
227 232 240 247 255 241 214 186 168 127 121 91 76 104 140 154 157 183 177 196 218 208 186 171 142 157 29 70 103 111 152 230 54 44 228 229 234 126 128 134 77 61 60 1 343 339 202 219 129 155 274 302 302 323
229 225 231 239 240 246 235 190 156 131 100 125 141 168 198 181 211 188 192 180 221 182 157 151 139 140 156 98 147 142 225 106 223 155 235 238 200 179 163 101 100 25 357 332 311 297 326 173 166 156 43 316 324 334
227 220 219 229 232 239 246 166 134 68 99 142 161 177 201 229 218 208 228 290 262 194 124 94 58 95 121 133 183 177 185 228 196 220 222 200 191 168 148 167 56 337 310 314 309 292 318 155 160 167 285 296 297 296
217 234 217 212 217 220 215 127 77 80 42 140 228 197 187 117 268 188 199 243 239 153 78 62 81 35 215 187 174 206 183 212 240 206 192 158 171 180 195 220 257 279 297 285 295 302 175 166 173 192 268 301 317 310
199 234 185 186 192 198 154 94 101 129 181 202 237 250 285 197 179 187 186 212 110 92 108 124 158 192 189 200 205 187 191 197 186 197 189 177 182 207 215 244 271 281 282 287 294 198 195 152 144 176 351 339 349 347
190 226 238 177 175 100 59 66 108 128 183 219 217 220 197 209 127 103 101 27 81 101 92 138 63 244 222 177 185 105 44 231 224 196 177 177 200 207 206 229 258 262 282 298 292 254 138 146 174 85 18 8 333 309
193 208 242 168 125 98 103 142 153 180 191 190 247 261 174 151 46 75 93 79 75 81 91 67 242 239 231 158 114 154 148 131 117 161 223 224 243 232 234 264 283 296 293 290 287 168 163 155 148 122 37 340 300 309
205 247 268 144 108 93 118 120 244 209 192 205 185 135 121 126 121 101 103 103 105 98 133 187 208 235 185 101 139 138 144 143 107 65 33 55 346 93 172 210 254 266 279 23 98 110 127 124 90 90 40 293 308 317
191 230 159 137 134 45 132 168 186 206 166 191 162 107 103 95 167 146 160 158 130 177 180 219 205 249 309 188 147 139 137 137 155 158 192 250 252 210 255 266 263 271 259 179 174 186 160 138 133 89 285 320 321 322
174 122 96 55 118 187 208 222 185 197 146 144 108 138 174 194 141 161 160 178 213 198 189 180 190 200 190 179 201 159 210 157 165 194 213 157 289 301 289 268 307 299 297 219 180 144 135 119 113 114 78 351 325 340
126 82 67 91 90 164 181 215 151 173 148 160 143 173 205 179 185 114 194 225 227 193 177 191 214 202 189 220 217 260 177 152 171 202 212 215 233 252 266 281 74 72 46 23 115 128 123 121 138 161 179 279 344 333
89 101 117 149 192 157 153 185 180 188 163 157 164 201 191 188 142 175 212 211 219 180 170 196 184 201 303 264 218 229 236 200 205 237 228 195 257 307 57 93 129 126 119 109 117 115 127 144 160 163 103 70 3 30
105 177 152 152 185 144 177 188 199 178 164 184 188 220 178 148 147 171 160 242 215 223 306 264 195 176 183 224 248 246 230 168 183 184 239 154 143 117 98 151 172 243 135 111 137 144 150 147 136 116 97 65 9 359
162 207 160 181 144 129 165 185 195 200 150 183 191 188 108 98 111 172 114 21 69 62 63 82 115 108 84 152 187 271 238 167 139 151 219 185 172 161 177 174 164 359 43 71 139 155 151 139 121 111 126 142 328 22
186 181 210 210 160 158 158 138 117 103 220 177 175 117 89 101 130 75 77 353 32 310 205 221 167 124 135 57 319 334 336 138 147 166 147 170 185 138 161 215 211 137 160 171 179 166 155 147 146 132 139 221 211 128
274 81 143 176 99 79 80 35 76 133 150 323 97 92 129 108 92 92 132 276 325 7 293 333 49 2 22 124 137 77 41 33 66 97 91 65 129 118 97 97 96 101 120 158 191 142 157 160 166 155 169 186 217 259
43 6 98 92 69 48 78 66 27 31 341 34 68 45 67 49 46 63 10 351 2 47 41 19 3 4 16 27 0 337 96 64 221 124 123 114 43 40 13 331 338 172 111 131 188 97 146 162 167 174 186 197 213 219
24 16 68 5 56 66 20 72 89 23 32 47 82 71 61 47 54 47 32 18 16 6 351 3 328 10 13 15 350 23 303 268 180 141 140 134 112 351 346 15 110 237 70 303 164 125 73 119 96 126 149 152 150 122
50 61 63 60 91 57 57 60 51 50 41 41 27 92 83 28 13 42 83 64 5 329 322 335 353 341 355 357 351 16 344 351 266 132 118 133 130 184 243 164 127 97 1 9 151 144 137 139 135 136 139 136 137 136
52 88 119 102 87 5 5 46 50 48 31 56 56 40 74 117 238 230 210 193 222 240 251 263 264 266 244 266 276 276 254 271 298 131 137 165 174 192 225 63 29 23 358 3 97 127 154 151 153 157 161 155 145 137
61 58 70 93 107 115 178 103 80 110 107 92 91 63 149 207 249 273 278 217 227 230 232 237 245 249 246 227 247 263 267 292 57 92 134 161 152 147 176 185 191 174 173 167 118 77 179 182 178 170 166 162 146 147